Location: Observatorio del Centro Ecologico de Sonora
(29.0667°N, 110.9333°W)
Time: 09:48:19
(UTC-07:00)

ISS - Visible Passes

Search period start: 29 July 2014 00:00
Search period end: 08 August 2014 00:00
Orbit: 411 x 420 km, 51.6° (Epoch: 29 July)

Date Brightness Start Highest point End Pass type
(mag) Time Alt. Az. Time Alt. Az. Time Alt. Az.
01 Aug -0.4 04:43:36 10° NNW 04:46:15 21° NE 04:48:54 10° E visible
01 Aug -1.4 19:45:52 10° SSE 19:47:32 13° SE 19:49:12 10° E visible
01 Aug -1.5 21:20:54 10° WSW 21:23:28 32° WNW 21:23:28 32° WNW visible
02 Aug 0.1 03:55:41 10° N 03:57:15 13° NE 03:58:49 10° ENE visible
02 Aug -3.1 20:31:48 10° SW 20:35:06 73° NW 20:38:25 10° NE visible
03 Aug -3.0 04:42:00 10° NW 04:45:21 73° NE 04:48:41 10° SE visible
03 Aug -3.1 19:43:06 10° SSW 19:46:18 49° SE 19:49:31 10° NE visible
03 Aug 0.1 21:21:41 10° WNW 21:23:12 13° NW 21:24:43 10° N visible
04 Aug -1.6 03:53:23 10° NNW 03:56:29 34° NE 03:59:34 10° ESE visible
04 Aug -0.5 20:31:34 10° W 20:34:11 21° NW 20:36:48 10° NNE visible
05 Aug -2.3 04:43:32 25° WSW 04:44:12 27° SW 04:47:05 10° S visible
05 Aug -1.7 19:42:06 10° WSW 19:45:14 39° NW 19:48:23 10° NNE visible
07 Aug -0.1 19:42:34 10° WNW 19:44:23 14° NW 19:46:12 10° N visible
